Temp
11 11 11 11 11 12 12 12 13 13 14 14 14 14 14 14 14 14 14 14 14 13 15 15 17 18 17 17 20 27 27 26 25 23 23 23 24 24 24 25 26 24 26 25 25 25 25
11 11 11 12 12 12 13 13 13 14 14 14 14 14 14 14 14 14 14 15 15 15 16 16 17 17 15 19 26 27 27 26 25 24 25 24 25 26 25 25 25 25 25 25 26 26 27
11 11 11 12 13 12 12 13 14 14 14 14 14 15 14 14 14 14 15 16 16 16 16 17 17 16 15 20 27 27 26 28 28 27 26 27 28 27 26 26 25 24 25 25 26 26 26
11 11 12 12 13 13 13 13 14 14 15 14 15 15 14 14 14 15 16 17 17 17 17 17 16 15 18 26 26 27 28 29 29 29 29 29 29 27 27 27 26 26 23 23 25 25 26
11 11 12 12 13 13 13 14 14 15 15 15 15 15 15 15 15 15 16 17 17 17 17 17 15 15 21 26 27 28 28 28 28 29 29 29 28 25 24 22 21 22 22 23 25 23 25
11 11 12 12 13 13 13 14 14 15 15 16 15 15 15 15 16 16 17 18 18 18 17 15 16 19 22 24 27 28 28 28 27 27 25 26 21 22 21 21 21 22 22 22 23 24 24
11 11 12 12 13 13 14 14 15 16 16 16 16 16 16 16 17 17 17 17 16 17 17 20 21 22 24 26 27 28 28 28 27 26 24 23 22 22 24 23 24 24 22 22 24 25 26
11 11 12 12 12 13 13 14 15 16 16 16 16 16 17 17 17 18 18 16 20 22 21 21 21 22 24 27 26 26 28 26 26 24 24 21 23 24 25 24 23 24 22 23 24 24 24
11 11 12 12 13 13 13 15 15 16 16 17 17 17 17 18 18 18 17 19 22 21 20 24 23 23 26 27 25 25 26 25 25 24 24 21 24 26 24 22 23 21 21 23 23 23 23
11 12 12 13 13 13 14 15 16 17 17 17 17 17 17 18 18 18 19 23 23 22 17 23 25 26 27 25 25 26 27 26 25 23 22 24 25 23 23 23 23 22 23 23 23 21 21
11 12 12 13 13 13 15 15 16 17 17 17 17 17 18 18 18 18 21 22 22 21 16 23 25 27 27 26 24 25 27 26 25 25 22 23 22 22 22 23 24 23 24 23 23 21 20
12 12 13 14 13 13 14 15 17 17 18 18 18 17 18 17 18 20 21 22 21 15 18 23 24 24 25 25 24 25 26 25 25 23 22 23 23 23 23 23 24 24 23 20 20 19 16
11 12 13 14 13 13 14 16 17 17 18 18 18 18 18 18 19 21 22 19 15 15 23 23 23 23 24 24 24 24 23 21 20 21 21 22 22 23 24 22 22 21 18 15 16 15 16
11 13 13 13 12 13 15 16 17 17 18 18 18 18 19 19 20 21 21 17 19 21 23 24 23 22 23 24 24 23 22 20 20 21 20 19 19 21 22 22 22 22 19 14 19 15 16
12 13 13 13 12 14 14 16 17 17 19 18 18 18 19 21 21 21 15 15 18 22 24 24 23 22 23 24 23 21 21 20 21 21 20 19 20 22 23 23 22 21 19 20 16 14 13
12 13 13 12 13 14 15 16 17 17 18 18 18 19 20 21 21 20 15 15 20 23 23 24 23 22 22 22 23 21 21 21 22 21 20 21 20 22 23 22 22 21 21 17 13 16 18
12 12 12 12 13 14 15 16 16 17 18 18 18 15 19 20 21 14 15 17 23 23 22 23 23 23 22 21 22 21 20 20 20 21 19 20 19 19 21 20 20 19 19 18 17 13 14
12 12 12 12 13 14 14 15 16 17 17 17 15 15 18 19 15 13 16 20 22 23 23 23 23 22 22 22 20 19 19 20 18 19 20 19 16 14 20 21 22 21 20 17 12 17 11
12 12 12 13 14 14 14 15 16 17 17 18 14 14 18 18 13 11 17 22 23 23 23 24 23 22 22 21 18 19 18 18 17 18 18 19 16 13 16 18 19 20 21 17 14 11 14
12 12 12 13 14 14 14 15 16 17 17 18 13 14 14 13 13 17 20 22 22 21 22 22 22 22 21 21 18 18 18 18 18 18 14 17 17 16 15 18 18 20 20 17 15 11 13
12 12 12 13 14 14 14 15 16 17 17 17 14 15 15 14 15 18 19 20 21 21 22 22 22 22 21 20 19 17 18 18 18 16 19 16 16 17 17 17 18 19 18 17 17 15 14
12 12 12 13 13 14 14 15 16 17 17 17 16 16 14 14 17 18 17 19 20 21 21 22 21 20 20 18 18 17 17 17 17 18 18 14 13 15 17 15 14 16 16 15 16 17 17
12 12 13 13 13 14 14 15 16 17 18 17 18 17 15 13 15 16 17 19 19 20 21 20 17 15 14 17 15 14 15 16 16 17 15 14 11 10 12 11 12 11 15 17 18 16 17
11 12 12 12 13 13 14 15 16 17 18 18 18 16 13 13 15 16 20 21 19 20 18 18 17 16 17 15 15 14 13 14 15 14 15 11 9 6 8 8 11 16 16 17 16 16 13
11 12 12 12 12 13 14 15 16 16 18 18 18 16 11 9 14 19 20 16 16 15 16 16 15 16 14 14 10 13 9 11 12 13 12 13 7 7 8 9 12 16 16 16 16 14 13
11 11 12 12 12 13 14 15 16 17 18 19 17 17 12 10 13 16 16 16 14 14 13 15 15 15 11 6 8 10 11 13 13 14 12 11 8 7 8 8 9 13 16 16 15 11 13
11 11 12 12 12 13 14 15 16 17 18 19 17 18 16 12 14 16 15 16 14 12 12 14 16 15 11 5 9 7 11 13 12 11 8 8 6 7 2 5 8 11 15 15 12 12 11
11 11 11 11 12 13 14 15 16 17 17 18 16 17 17 10 13 14 14 16 14 13 11 13 12 10 7 8 6 9 6 9 11 12 10 9 8 7 5 5 10 12 15 13 11 11 10
10 10 11 11 12 12 13 14 15 16 17 18 17 16 17 12 13 15 15 15 15 16 12 12 13 11 10 8 7 9 6 9 8 10 12 12 10 10 10 10 12 13 14 13 11 10 9
Height
803 804 802 805 804 801 801 800 798 796 793 791 790 789 788 788 790 790 791 791 791 791 792 793 794 793 793 794 784 769 770 771 773 776 777 778 783 784 790 785 780 789 785 785 785 786 786
799 801 800 800 801 798 798 796 794 792 789 788 787 786 786 786 787 788 789 788 788 790 791 792 793 792 794 797 771 770 769 769 771 771 769 771 771 769 776 780 785 781 785 787 786 786 787
793 794 795 797 796 796 796 791 790 788 785 784 783 783 783 784 785 786 786 786 787 789 790 791 792 792 794 782 770 769 769 768 768 768 768 766 764 767 769 777 775 783 793 790 789 788 791
788 789 791 792 792 792 792 788 787 784 782 781 781 780 781 782 783 784 785 786 787 788 789 791 792 793 788 770 770 768 767 766 766 765 765 765 763 763 767 768 777 791 800 814 795 793 788
785 787 786 788 788 789 789 785 783 781 779 779 778 778 779 780 781 783 784 785 787 788 790 790 793 793 786 769 768 767 766 765 764 765 764 764 765 773 776 798 811 807 823 817 806 796 794
782 783 783 784 784 785 785 782 780 777 776 776 776 776 777 778 779 781 783 786 787 788 789 791 792 795 777 772 767 767 766 766 766 765 769 771 781 794 801 811 832 821 819 814 813 800 798
781 778 780 780 781 782 781 779 777 774 774 774 775 775 775 777 779 781 784 786 791 792 788 782 780 778 770 767 767 767 767 767 768 773 791 785 802 811 799 796 796 800 807 813 804 794 797
776 775 776 777 778 779 777 776 774 772 773 773 773 774 776 777 780 781 784 783 782 783 786 774 776 776 769 768 773 768 768 776 778 792 788 802 809 794 789 792 799 800 810 814 805 797 802
770 772 772 774 774 776 774 772 771 771 772 772 773 774 776 777 780 782 781 779 779 779 786 774 770 771 768 768 773 773 770 775 782 790 794 809 797 785 794 804 806 815 818 815 815 807 806
765 766 768 770 771 773 771 769 769 769 771 771 773 774 776 778 783 781 781 778 778 779 805 785 774 769 766 767 778 769 769 774 780 793 795 798 789 798 803 808 807 819 806 808 811 822 833
759 762 764 765 768 770 767 767 766 767 769 771 772 773 776 779 779 780 780 778 778 780 838 783 774 765 765 775 776 774 769 772 785 786 796 807 803 807 811 806 800 811 799 804 807 820 826
752 760 760 761 765 766 764 764 764 766 768 770 771 773 776 778 777 778 777 777 779 816 822 785 773 778 779 775 778 774 774 773 777 790 794 798 793 799 802 798 796 795 803 816 818 830 858
748 754 757 757 763 763 761 761 762 764 767 768 770 772 775 776 776 776 776 777 815 830 775 787 785 779 782 785 783 782 791 800 808 816 815 807 808 799 796 807 802 808 825 860 859 869 865
745 749 752 755 761 760 758 758 760 762 764 767 769 772 774 774 775 775 775 794 812 786 781 770 776 783 790 784 787 789 797 811 802 804 819 829 836 812 802 808 813 813 825 865 856 874 865
741 746 749 753 759 757 755 755 758 760 763 767 770 772 773 773 774 775 786 817 804 782 769 774 778 792 791 783 789 797 805 811 806 804 818 828 828 806 803 802 807 816 835 823 853 866 877
736 743 746 752 755 753 753 753 756 759 762 766 768 770 771 773 774 775 796 807 784 768 766 768 788 786 799 793 795 802 806 804 805 801 800 809 830 810 805 802 804 812 814 845 860 866 861
734 740 745 750 751 749 750 752 754 757 761 766 767 775 771 773 775 786 806 797 774 767 767 774 780 786 787 795 794 804 810 807 804 802 803 806 820 828 813 822 825 826 830 835 844 866 875
732 738 743 747 748 747 748 750 752 755 760 766 767 783 772 773 791 798 796 780 768 770 766 770 772 777 783 788 801 809 812 809 806 805 811 811 829 850 827 814 810 814 824 837 872 855 881
730 736 741 745 744 745 746 749 749 754 759 762 770 775 774 775 804 810 785 774 770 773 773 772 778 777 777 790 811 809 812 809 807 810 814 814 832 862 847 834 821 822 819 832 848 867 863
728 734 740 742 742 744 746 747 748 753 757 761 768 785 780 780 784 785 782 778 780 772 773 773 776 776 784 793 798 811 813 809 808 811 817 815 828 839 854 836 830 828 827 833 844 875 864
727 734 738 738 741 744 745 746 747 751 756 759 764 772 770 791 787 781 780 779 781 783 774 773 780 781 788 801 803 814 813 813 811 815 812 821 835 831 830 831 826 827 831 833 838 843 855
727 733 735 737 741 742 744 744 746 750 755 759 763 766 769 776 774 779 784 782 783 780 779 782 785 787 789 802 803 813 811 815 817 816 818 827 845 835 836 838 841 835 835 835 834 829 832
727 731 734 737 740 742 744 744 746 749 753 755 755 757 761 779 780 784 783 777 780 778 779 782 790 801 808 804 803 806 807 808 811 818 827 834 850 861 859 855 852 860 834 825 824 827 826
726 731 734 738 741 742 744 745 747 749 751 752 753 755 768 784 778 779 769 768 776 776 786 789 790 797 800 800 803 807 813 817 817 823 822 841 857 878 877 877 876 829 821 817 825 827 832
727 730 734 739 741 742 744 745 747 749 751 753 753 755 766 794 779 770 768 781 783 786 791 794 794 792 796 804 829 832 848 837 837 833 832 832 862 880 881 874 849 824 822 823 825 832 831
727 731 736 740 741 743 745 746 747 749 750 752 753 753 757 780 784 772 777 778 791 796 802 798 796 796 801 831 842 852 850 837 841 834 838 841 852 867 875 883 876 831 816 814 818 845 826
728 733 737 740 742 744 745 746 747 748 749 750 752 753 756 775 773 771 778 781 783 794 804 801 798 803 808 845 847 861 842 829 843 846 860 860 870 874 905 895 857 826 814 814 845 836 823
730 735 738 742 745 746 746 747 748 749 750 750 755 756 757 772 775 773 772 774 780 786 803 801 809 815 828 839 853 844 862 840 838 832 842 850 861 872 881 892 857 814 815 827 820 817 820
732 736 740 744 747 748 749 749 750 751 752 753 756 758 759 764 776 775 775 775 774 776 785 796 799 805 811 831 840 838 852 841 844 840 824 830 829 838 835 831 810 806 803 804 807 813 818
Wind_Speed
18 17 16 15 14 12 14 15 16 18 19 18 16 14 13 12 13 13 13 14 12 10 7 6 3 5 2 1 8 6 10 9 10 8 11 6 6 6 6 4 4 7 3 6 5 7 3
19 18 15 13 13 13 14 15 17 18 16 15 13 12 11 11 13 12 13 13 11 7 6 2 2 4 1 3 4 11 12 10 10 12 7 9 6 6 5 6 7 6 7 6 6 3 3
19 17 15 13 11 13 15 15 16 15 13 12 12 11 11 11 12 12 12 11 8 6 3 1 2 0 2 13 5 13 9 10 5 12 3 2 4 1 2 5 6 8 6 5 0 3 3
18 17 15 13 11 13 14 14 14 12 11 11 10 10 11 11 12 11 10 7 6 6 3 1 1 3 6 11 14 14 5 5 3 3 6 8 9 1 4 2 6 5 5 3 3 3 1
19 18 15 12 11 12 13 12 12 10 8 8 7 7 9 10 9 8 7 7 7 4 2 1 2 4 8 13 5 8 2 4 5 2 8 10 5 3 7 4 5 5 3 4 2 8 3
21 18 15 12 11 11 10 11 9 7 6 6 5 6 8 8 9 9 10 8 5 2 2 1 4 2 7 4 4 1 0 4 3 4 7 7 5 4 4 4 3 5 5 3 7 5 2
23 18 15 13 11 9 8 9 7 5 4 3 4 5 6 9 10 12 10 4 2 1 4 7 4 3 5 4 4 3 2 4 3 3 1 6 5 3 6 5 4 5 5 7 2 1 4
24 19 16 13 11 8 7 7 5 3 3 3 5 7 9 11 10 10 9 2 3 3 3 10 9 7 18 5 1 4 3 2 1 2 3 6 3 5 5 6 7 5 8 4 5 7 4
25 20 16 14 10 9 7 5 3 3 5 5 6 9 11 11 10 10 6 7 6 11 1 4 7 6 4 3 3 4 3 1 3 1 2 6 4 2 6 6 7 5 5 3 2 3 3
25 21 17 13 10 9 6 3 3 5 6 6 7 10 12 12 7 3 4 9 5 2 4 3 1 2 1 4 3 1 2 2 3 1 8 4 5 7 6 5 1 2 3 3 2 4 2
25 21 17 13 11 9 5 4 4 7 7 7 7 10 12 13 2 6 5 7 5 2 3 3 2 5 1 2 4 3 2 3 1 2 7 2 5 7 6 0 1 3 2 1 1 3 4
26 22 17 13 11 9 5 4 6 9 9 8 8 9 12 10 4 1 7 7 1 6 2 4 5 4 3 1 1 2 0 3 1 6 6 4 3 3 2 3 0 1 2 7 4 3 3
26 22 17 14 12 9 5 5 8 11 10 8 7 13 11 3 1 4 6 4 5 4 2 5 5 5 4 3 3 3 4 6 4 4 3 5 3 4 3 4 6 8 5 3 4 4 3
26 22 18 14 12 9 4 5 9 12 12 11 12 12 5 3 2 4 3 5 2 4 4 3 5 6 5 3 3 3 3 3 6 4 3 4 3 4 6 2 1 3 5 5 4 2 3
25 22 18 14 13 8 4 6 9 13 14 13 11 7 3 3 1 1 5 3 5 3 2 7 5 5 2 2 5 6 3 3 1 2 5 4 1 1 1 1 2 3 4 4 6 3 3
25 21 18 14 12 7 5 6 11 15 16 15 8 5 2 3 2 4 4 5 3 3 3 4 5 5 5 6 4 4 2 2 0 4 2 3 4 2 2 4 6 5 2 4 4 2 1
25 21 18 14 10 7 5 6 12 17 18 16 4 3 3 5 3 5 3 5 2 3 5 4 1 5 5 7 6 3 2 3 5 3 5 2 4 4 4 2 1 4 3 5 4 3 4
25 21 17 14 10 8 5 6 13 17 18 14 4 3 3 6 3 1 2 4 3 3 5 4 3 3 5 4 4 3 3 2 5 1 3 2 5 3 1 3 2 2 3 4 4 2 2
25 21 17 13 10 8 6 6 14 19 21 8 4 3 3 1 3 2 4 3 2 2 1 2 3 4 4 4 6 3 3 2 8 4 2 2 2 3 6 6 5 3 1 5 6 3 5
24 20 17 14 11 8 6 6 13 20 20 5 3 3 3 3 1 6 2 2 2 3 2 4 3 5 5 5 6 5 2 4 4 3 2 2 3 5 6 4 3 3 2 4 5 3 3
23 19 16 14 11 9 7 6 11 18 23 2 2 4 6 4 3 3 3 5 3 2 2 3 4 3 4 3 3 4 3 2 4 3 3 3 3 1 2 4 2 1 2 2 4 5 5
22 18 15 13 11 9 7 7 10 16 18 4 3 3 2 3 5 5 5 6 8 3 3 0 2 4 5 4 5 7 6 3 4 2 2 3 1 2 1 5 6 3 5 5 4 3 4
21 17 15 13 10 10 8 8 10 19 18 3 3 1 5 3 5 4 4 6 8 8 3 4 10 7 9 4 5 5 4 5 6 6 2 3 4 3 3 4 5 5 6 3 1 3 4
20 17 15 12 10 10 9 9 10 17 14 4 2 3 4 1 3 6 3 2 6 2 7 3 5 6 4 6 2 6 11 10 10 8 4 4 4 3 2 3 1 5 5 5 6 3 8
19 17 15 12 10 10 9 9 9 9 10 7 2 3 3 1 1 2 3 9 8 7 6 5 6 1 7 6 5 5 5 6 4 6 7 4 5 3 3 3 5 2 4 5 6 5 6
19 17 15 11 10 10 9 9 9 8 9 8 7 6 5 5 3 3 5 7 6 4 5 4 5 5 7 3 4 4 4 4 2 1 6 6 6 4 3 4 6 5 3 6 5 4 7
19 17 15 11 9 9 9 9 9 8 7 7 7 6 5 4 2 3 4 5 6 5 4 2 1 4 4 2 3 3 4 4 5 6 4 2 3 5 2 2 7 7 4 4 5 7 7
19 17 15 12 10 9 9 9 9 8 7 8 9 7 3 3 3 4 4 4 3 3 5 4 4 4 3 4 3 4 3 5 2 5 6 7 7 4 3 2 8 7 4 7 6 4 6
19 17 15 12 10 9 10 10 9 8 6 7 6 9 10 5 3 6 11 11 4 4 6 1 6 4 5 4 2 3 1 1 2 3 3 2 7 5 9 6 5 6 5 4 7 6 7
Wind_Direction
251 261 265 265 274 278 285 292 296 297 297 289 283 278 274 267 264 263 266 267 255 260 252 260 317 314 335 255 252 238 226 212 213 202 216 185 196 191 214 175 93 113 136 84 94 93 100
247 262 256 258 272 279 285 293 298 298 295 289 283 278 269 260 256 255 256 255 246 242 234 261 324 307 94 268 277 331 240 229 213 206 229 208 219 224 236 209 152 160 127 147 119 108 88
243 248 243 252 264 278 285 296 299 298 295 288 278 268 256 250 247 246 249 247 233 211 210 232 280 38 271 239 271 328 236 270 209 216 246 120 242 98 160 79 150 145 86 28 277 166 141
241 236 239 247 259 274 286 299 298 295 293 284 270 256 246 238 238 240 243 232 199 190 195 226 211 156 250 272 291 293 303 337 328 44 357 3 360 30 68 340 44 84 57 108 274 156 230
238 233 235 243 254 271 286 300 295 292 289 277 259 243 234 226 225 224 211 187 179 178 174 163 167 194 271 311 286 273 317 350 354 14 350 14 41 63 30 68 23 11 195 215 249 207 134
233 229 233 238 252 267 287 296 293 291 284 263 241 218 213 208 196 185 176 164 163 140 151 154 257 309 266 256 211 220 104 352 20 1 10 22 48 54 34 75 206 241 236 200 176 220 113
232 225 229 234 245 262 282 290 289 290 275 233 207 181 177 181 170 164 160 152 85 85 193 197 209 228 292 219 178 235 220 2 25 69 72 2 56 184 213 185 207 223 74 115 89 111 165
224 221 222 232 240 252 273 284 285 270 227 182 159 159 161 154 163 160 172 163 192 303 282 233 242 282 267 257 113 282 198 102 144 193 93 24 159 223 293 40 59 78 95 24 15 16 78
217 218 217 226 230 247 261 268 263 206 191 156 157 159 160 152 163 183 217 228 310 345 166 263 204 215 216 103 165 198 117 150 218 223 162 157 205 352 90 41 63 53 96 84 176 330 5
212 211 214 218 222 242 249 247 222 185 183 154 167 166 158 147 155 162 245 314 346 355 64 278 202 243 36 114 46 245 108 133 354 93 120 108 1 95 87 70 95 80 168 155 100 79 168
204 210 207 208 222 235 232 232 184 186 174 165 165 165 167 174 45 163 327 314 312 78 78 241 233 160 201 101 155 301 65 35 341 130 92 232 83 73 69 307 81 200 306 83 88 77 70
196 207 201 197 220 227 220 204 180 182 178 169 157 151 162 204 278 354 329 303 307 46 202 186 141 155 115 192 223 156 195 44 64 74 53 106 158 81 212 277 149 324 5 37 56 70 48
194 197 197 193 215 220 210 182 179 178 177 161 167 166 167 201 221 334 324 50 48 131 142 154 167 140 171 145 134 109 82 38 75 80 65 42 19 332 30 32 16 44 54 9 25 18 205
191 189 190 189 212 209 194 177 177 174 170 158 142 158 188 200 305 319 49 51 195 216 180 191 123 129 140 140 40 69 80 49 13 57 113 127 348 359 333 90 195 354 113 141 154 167 264
185 186 184 189 208 190 178 169 173 172 170 168 159 183 194 171 129 46 76 86 220 237 163 131 89 104 104 76 116 79 72 112 19 32 128 130 154 303 46 334 116 316 54 159 105 11 68
179 182 181 189 199 173 161 164 173 172 168 169 159 156 186 155 115 81 78 228 241 25 27 100 138 149 159 179 114 100 109 311 266 22 162 171 113 239 290 28 8 105 167 46 8 93 110
175 176 178 186 186 159 147 164 172 170 169 170 151 79 165 152 131 53 162 242 279 59 72 86 164 185 176 183 159 78 56 10 11 18 55 75 96 284 49 28 191 13 30 59 105 107 156
172 173 173 182 170 147 136 161 168 167 168 171 117 99 142 153 67 46 187 215 311 38 27 30 92 53 123 131 69 88 129 45 340 347 54 24 117 90 170 279 271 131 117 103 108 207 57
169 169 173 173 155 138 123 150 163 169 167 159 126 131 98 51 140 284 282 274 78 66 310 51 53 67 65 120 96 74 90 9 39 53 73 4 47 67 353 348 346 112 137 93 100 78 190
163 166 173 160 147 135 126 141 163 175 167 151 104 94 355 50 207 156 224 248 97 33 35 70 116 68 66 63 47 125 106 36 45 66 353 69 92 149 180 196 180 148 97 135 112 118 188
160 167 166 151 144 134 121 124 156 177 183 143 95 213 175 200 275 190 145 183 144 107 4 68 26 99 135 107 86 108 92 95 35 28 45 82 117 79 50 24 35 170 147 278 198 188 161
160 164 154 144 139 124 111 110 145 164 171 177 145 144 48 181 140 164 163 201 174 181 132 269 138 31 95 110 176 186 132 154 181 116 68 19 188 53 53 16 19 306 297 257 226 218 175
158 157 147 141 134 119 103 97 141 161 164 160 237 132 109 295 113 100 216 181 199 137 27 38 132 96 75 126 104 94 73 105 135 135 113 80 113 81 256 7 358 338 214 205 165 74 211
155 152 142 137 129 117 101 96 129 164 177 202 103 105 92 276 119 184 212 119 128 165 133 75 75 98 159 154 108 41 42 49 56 32 85 115 88 74 201 29 19 252 307 196 144 69 114
154 146 140 135 125 110 103 98 119 144 168 182 164 151 120 117 245 9 86 116 80 49 61 73 9 133 138 60 65 50 354 20 8 36 26 85 116 90 139 194 299 292 195 155 165 224 179
149 145 140 135 120 108 99 96 106 121 145 149 95 103 101 114 283 284 104 146 134 104 25 24 12 64 66 76 74 133 196 198 213 134 45 68 78 114 154 141 214 240 210 125 86 281 185
148 146 141 133 119 107 96 86 93 98 113 132 86 97 92 106 299 26 139 163 120 98 106 100 82 58 53 76 94 149 227 179 172 177 194 53 3 153 149 218 287 239 208 105 102 238 171
149 146 140 133 121 105 94 83 87 91 103 112 86 71 100 103 346 8 22 118 94 110 134 203 57 350 47 71 120 199 163 224 137 176 178 168 156 195 108 88 280 184 112 170 202 152 157
150 146 141 137 125 109 98 89 87 93 105 118 93 73 80 85 160 88 69 51 54 168 127 113 153 161 166 93 154 136 179 185 155 225 126 229 189 182 184 212 239 214 194 186 156 149 173